COSMOS 2475 (743)

Last updated on Sat Aug 30 2025 00:03:19 GMT+0000 (Coordinated Universal Time)

1 37869U 11064C 25240.67975008 -.00000004 00000+0 00000+0 0 9993 2 37869 65.1150 82.8542 0023705 248.5825 290.7973 2.13101919107533
UTC large
Height (km)
Speed (km/s)
/
Latitude / Longitude
Inclination (degrees)
Orbital Period (minutes)
Azimuth
Elevation
Range (km)
Doppler Factor

Next 0 passes for location: London (51.5072 / 0.1276)

Sorry there are no passes over London.